• Processing (Info)

  • MPEC 2016-D15 : 2016 CJ248

    The following Minor Planet Electronic Circular may be linked-to from your own Web pages, but must not otherwise be redistributed electronically.

    A form allowing access to any MPEC is at the bottom of this page.


    Read MPEC 2016-D14 Read MPEC 2016-D16


    M.P.E.C. 2016-D15                                Issued 2016 Feb. 17, 16:28 UT
    
         The Minor Planet Electronic Circulars contain information on unusual
             minor planets and routine data on comets.  They are published
        on behalf of Division F of the International Astronomical Union by the
              Minor Planet Center, Smithsonian Astrophysical Observatory,
                              Cambridge, MA 02138, U.S.A.
    
                 Prepared using the Tamkin Foundation Computer Network
    
                                  MPC@CFA.HARVARD.EDU
                URL https://www.minorplanetcenter.net/    ISSN 1523-6714
    
                                      2016 CJ248
    
    Observations:
         K16CO8J* C2016 02 14.54041 12 19 55.674-31 46 44.43         21.0 wLED015F51
         K16CO8J  C2016 02 14.55140 12 19 56.364-31 47 04.62         20.9 wLED015F51
         K16CO8J  C2016 02 14.56239 12 19 57.028-31 47 24.31         20.9 wLED015F51
         K16CO8J  C2016 02 14.57339 12 19 57.687-31 47 44.24         21.1 wLED015F51
         K16CO8J KC2016 02 15.05178612 20 29.39 -32 02 06.6          21.1 RqED015K92
         K16CO8J KC2016 02 15.05769112 20 29.75 -32 02 17.4          20.8 RqED015K92
         K16CO8J KC2016 02 15.06358512 20 30.12 -32 02 28.2          20.9 RqED015K92
         K16CO8J _C2016 02 15.50657112 20 59.552-32 16 06.30         20.7 RtED015568
         K16CO8J _C2016 02 15.50760612 20 59.610-32 16 08.25         20.6 RtED015568
         K16CO8J _C2016 02 15.50864412 20 59.674-32 16 10.04         20.6 RtED015568
         K16CO8J |C2016 02 16.25924 12 21 49.11 -32 38 58.1          21.2 VuED015807
         K16CO8J |C2016 02 16.26278 12 21 49.31 -32 39 04.3          21.1 VuED015807
         K16CO8J |C2016 02 16.26632 12 21 49.52 -32 39 10.8          21.1 VuED015807
         K16CO8J |C2016 02 17.21848 12 22 52.21 -33 08 26.4          21.0 VuED015807
         K16CO8J |C2016 02 17.22207 12 22 52.41 -33 08 33.3          21.0 VuED015807
    
    Observer details:
    568 Mauna Kea.  Observers R. J. Wainscoat, C. Wipper.  Measurers M. Micheli,
        R. J. Wainscoat.  3.6-m Canada-France-Hawaii Telescope + CCD.
    807 Cerro Tololo.  Observers T. Linder, R. Holmes.  0.61-m f/6.5 astrograph
        + CCD.
    F51 Pan-STARRS 1, Haleakala.  Observers B. Gibson, T. Goggia, N. Primak,
        A. Schultz, M. Willman.  Measurers K. Chambers, S. Chastel, L. Denneau,
        H. Flewelling, M. Huber, E. Lilly, E. Magnier, R. Wainscoat, C. Waters,
        R. Weryk.  1.8-m Ritchey-Chretien + CCD.
    K92 Sutherland-LCOGT B.  Observers T. Lister, S. Greenstreet, E. Gomez.
        Measurer T. Lister.  1.0-m f/8 Ritchey-Chretien + CCD.
    
    Orbital elements:
    2016 CJ248                                               Earth MOID = 0.1971 AU
    Epoch 2016 Jan. 13.0 TT = JDT 2457400.5                 MPC
    M 329.74447              (2000.0)            P               Q
    n   0.24646585     Peri.  327.92995     -0.52339517     +0.81997899
    a   2.5194064      Node   269.53291     -0.72464446     -0.57140014
    e   0.5302064      Incl.   13.39853     -0.44827213     -0.03370967
    P   4.00           H   19.3           G   0.15           U   7
    Residuals in seconds of arc
    160214 F51  0.1-  0.0     160215 K92  0.2-  0.1-    160216 807  0.3+  0.2-
    160214 F51  0.2+  0.2-    160215 K92  0.1-  0.2-    160216 807  0.1+  0.2+
    160214 F51  0.1+  0.1+    160215 568  0.0   0.0     160216 807  0.0   0.2+
    160214 F51  0.0   0.1+    160215 568  0.1-  0.1-    160217 807  0.1+  0.1+
    160215 K92  0.2-  0.1-    160215 568  0.1-  0.0     160217 807  0.1-  0.1-
    
    Ephemeris:
    2016 CJ248               a,e,i = 2.52, 0.53, 13                  q = 1.1836
    Date    TT    R. A. (2000) Decl.     Delta      r     Elong.  Phase     V
    2016 01 18    11 47 37.0 -19 12 48   1.1085  1.7233   110.8    32.3    22.1
    ...
    2016 02 02    12 05 44.1 -25 43 05   0.9112  1.6230   117.6    32.5    21.5
    ...
    2016 02 10    12 14 53.0 -29 31 07   0.8172  1.5705   120.8    32.7    21.2
    ...
    2016 02 16    12 21 31.8 -32 31 00   0.7521  1.5320   122.8    32.8    21.0
    2016 02 17    12 22 37.4 -33 01 41   0.7417  1.5256   123.1    32.8    20.9
    2016 02 18    12 23 42.9 -33 32 34   0.7315  1.5193   123.4    32.9    20.9
    ...
    2016 02 24    12 30 13.1 -36 41 52   0.6726  1.4819   125.1    33.1    20.7
    ...
    2016 03 03    12 38 53.2 -41 03 32   0.6014  1.4337   126.6    33.7    20.4
    ...
    2016 03 18    12 56 31.1 -49 28 16   0.4885  1.3503   127.7    35.7    19.9
    
    A. U. Tomatic                (C) Copyright 2016 MPC           M.P.E.C. 2016-D15
    

    Read MPEC 2016-D14 Read MPEC 2016-D16


    MPEC number:

    Enter an MPEC number in one of the following forms:

    • 1997-B01 (the full form)
    • J97B01 (the packed version of the full form)
    • B01 (the abbreviated form)